Weather History for Auburn, AL

Change the Weather History Date:

Saturday, November 24, 2012

  Actual Average Record
Temperature  
Mean Temperature 46 °F -  
Max Temperature 55 °F - 77 °F (1964)
Min Temperature 36 °F - 16 °F (1970)
Degree Days  
Heating Degree Days 19    
Month to date heating degree days 212  
Since 1 July heating degree days 279  
Moisture  
Dew Point 24 °F    
Average Humidity 46    
Maximum Humidity 75    
Minimum Humidity 21    
Precipitation  
Precipitation 0.00 in - 2.10 in (1983)
Month to date precipitation 0.92  
Year to date precipitation 23.05  
Sea Level Pressure  
Sea Level Pressure 30.14 in    
Wind  
Wind Speed 8 mph (NNW)    
Max Wind Speed 13 mph    
Max Gust Speed 21 mph    
Visibility 10 miles    
Events      
T = Trace of Precipitation, MM = Missing Value Source: NWS Daily Summary

Daily Weather History Graph

Daily Weather History Graph

Search for Another Location

Airport:

Trip Planner

Search our weather history database for the weather conditions in past years. The results will help you decide how hot, cold, wet, or windy it might be!

Date:

Astronomy

Nov. 24, 2012 Rise Set
Actual Time 6:20 AM CST 4:36 PM CST
Civil Twilight 5:53 AM CST 5:03 PM CST
Nautical Twilight 5:23 AM CST 5:33 PM CST
Astronomical Twilight 4:53 AM CST 6:03 PM CST
Moon 2:13 PM CST (11/24) 2:45 AM CST (11/24)
Length of Visible Light 11h 09m
Length of Day
10h 16m
Waxing Gibbous, 87% of the Moon is Illuminated
Nov 24
Waxing Gibbous
Nov 28
Full
Dec 6
Last Quarter
Dec 13
New
Dec 19
First Quarter

Hourly Weather History & Observations

Time (CST) Temp. Windchill Dew Point Humidity Pressure Visibility Wind Dir Wind Speed Gust Speed Precip Events Conditions
12:15 AM 50.0 °F - 39.2 °F 66% 30.11 in 10.0 mi NNW 10.4 mph - N/A   Clear
12:35 AM 48.2 °F - 37.4 °F 66% 30.11 in 10.0 mi NNW 10.4 mph - N/A   Clear
12:55 AM 48.2 °F - 37.4 °F 66% 30.11 in 10.0 mi NNW 9.2 mph - N/A   Clear
1:15 AM 48.2 °F - 35.6 °F 62% 30.11 in 10.0 mi NNW 10.4 mph - N/A   Clear
1:35 AM 46.4 °F 42.9 °F 35.6 °F 66% 30.11 in 10.0 mi NNW 6.9 mph - N/A   Clear
1:55 AM 46.4 °F 42.9 °F 35.6 °F 66% 30.11 in 10.0 mi NW 6.9 mph - N/A   Clear
2:15 AM 44.6 °F 40.7 °F 33.8 °F 66% 30.11 in 10.0 mi NW 6.9 mph - N/A   Clear
2:35 AM 44.6 °F 38.8 °F 33.8 °F 66% 30.11 in 10.0 mi NW 11.5 mph - N/A   Clear
2:55 AM 44.6 °F 40.7 °F 32.0 °F 61% 30.11 in 10.0 mi NNW 6.9 mph - N/A   Clear
3:15 AM 42.8 °F 38.6 °F 33.8 °F 70% 30.11 in 10.0 mi NNW 6.9 mph - N/A   Clear
3:35 AM 42.8 °F 37.5 °F 32.0 °F 66% 30.11 in 10.0 mi NNW 9.2 mph - N/A   Clear
3:55 AM 42.8 °F 38.6 °F 32.0 °F 66% 30.11 in 10.0 mi NNW 6.9 mph - N/A   Clear
4:15 AM 41.0 °F 36.4 °F 30.2 °F 65% 30.11 in 10.0 mi NNW 6.9 mph - N/A   Clear
4:35 AM 41.0 °F 35.2 °F 30.2 °F 65% 30.12 in 10.0 mi NNW 9.2 mph - N/A   Clear
5:15 AM 39.2 °F 34.2 °F 30.2 °F 70% 30.12 in 10.0 mi NNW 6.9 mph - N/A   Clear
5:35 AM 39.2 °F 34.2 °F 30.2 °F 70% 30.13 in 10.0 mi NNW 6.9 mph - N/A   Clear
5:55 AM 39.2 °F 33.6 °F 30.2 °F 70% 30.14 in 10.0 mi NNW 8.1 mph - N/A   Clear
6:15 AM 37.4 °F 31.4 °F 30.2 °F 75% 30.15 in 10.0 mi NNW 8.1 mph - N/A   Clear
6:35 AM 39.2 °F 32.5 °F 30.2 °F 70% 30.15 in 10.0 mi NNW 10.4 mph - N/A   Clear
6:55 AM 39.2 °F 33.6 °F 30.2 °F 70% 30.16 in 10.0 mi NNW 8.1 mph - N/A   Clear
7:15 AM 39.2 °F 33.0 °F 30.2 °F 70% 30.16 in 10.0 mi NNW 9.2 mph - N/A   Clear
7:35 AM 39.2 °F 32.0 °F 28.4 °F 65% 30.17 in 10.0 mi North 11.5 mph - N/A   Clear
7:55 AM 41.0 °F 33.9 °F 28.4 °F 61% 30.18 in 10.0 mi North 12.7 mph 18.4 mph N/A   Clear
8:15 AM 42.8 °F 37.5 °F 26.6 °F 53% 30.18 in 10.0 mi North 9.2 mph - N/A   Clear
8:35 AM 42.8 °F 35.8 °F 24.8 °F 49% 30.19 in 10.0 mi NNW 13.8 mph - N/A   Clear
8:55 AM 44.6 °F 38.8 °F 24.8 °F 46% 30.19 in 10.0 mi North 11.5 mph - N/A   Clear
9:15 AM 46.4 °F 41.1 °F 24.8 °F 43% 30.20 in 10.0 mi North 11.5 mph - N/A   Clear
9:35 AM 46.4 °F 41.5 °F 24.8 °F 43% 30.20 in 10.0 mi NNW 10.4 mph - N/A   Clear
9:55 AM 48.2 °F - 24.8 °F 40% 30.20 in 10.0 mi NNW 8.1 mph - N/A   Clear
10:15 AM 48.2 °F - 21.2 °F 34% 30.19 in 10.0 mi NNW 8.1 mph - N/A   Clear
10:36 AM 50.0 °F - 21.2 °F 32% 30.18 in 10.0 mi NNW 11.5 mph - N/A   Clear
10:55 AM 50.0 °F - 23.0 °F 35% 30.17 in 10.0 mi NW 10.4 mph - N/A   Clear
11:15 AM 51.8 °F - 21.2 °F 30% 30.16 in 10.0 mi NW 12.7 mph 17.3 mph N/A   Clear
11:35 AM 51.8 °F - 21.2 °F 30% 30.15 in 10.0 mi NW 12.7 mph 16.1 mph N/A   Clear
11:55 AM 53.6 °F - 21.2 °F 28% 30.13 in 10.0 mi WNW 9.2 mph 17.3 mph N/A   Clear
12:15 PM 53.6 °F - 19.4 °F 26% 30.13 in 10.0 mi NNW 12.7 mph 17.3 mph N/A   Clear
12:35 PM 53.6 °F - 19.4 °F 26% 30.12 in 10.0 mi NW 13.8 mph - N/A   Clear
12:55 PM 55.4 °F - 17.6 °F 23% 30.12 in 10.0 mi NNW 10.4 mph 20.7 mph N/A   Clear
1:15 PM 55.4 °F - 15.8 °F 21% 30.11 in 10.0 mi North 9.2 mph 18.4 mph N/A   Clear
1:35 PM 55.4 °F - 15.8 °F 21% 30.11 in 10.0 mi NW 9.2 mph - N/A   Clear
1:55 PM 55.4 °F - 17.6 °F 23% 30.11 in 10.0 mi WNW 11.5 mph - N/A   Clear
2:15 PM 55.4 °F - 17.6 °F 23% 30.11 in 10.0 mi NW 12.7 mph - N/A   Clear
2:35 PM 55.4 °F - 17.6 °F 23% 30.11 in 10.0 mi NW 11.5 mph 16.1 mph N/A   Clear
2:55 PM 53.6 °F - 15.8 °F 22% 30.11 in 10.0 mi NNW 10.4 mph - N/A   Clear
3:15 PM 53.6 °F - 15.8 °F 22% 30.11 in 10.0 mi NW 11.5 mph - N/A   Clear
3:35 PM 53.6 °F - 15.8 °F 22% 30.11 in 10.0 mi WNW 9.2 mph 16.1 mph N/A   Clear
3:55 PM 53.6 °F - 15.8 °F 22% 30.12 in 10.0 mi NNW 10.4 mph - N/A   Clear
4:15 PM 51.8 °F - 17.6 °F 26% 30.12 in 10.0 mi NNW 8.1 mph - N/A   Clear
4:35 PM 50.0 °F - 17.6 °F 28% 30.12 in 10.0 mi NW 9.2 mph - N/A   Clear
4:55 PM 48.2 °F - 17.6 °F 30% 30.13 in 10.0 mi NW 5.8 mph - N/A   Clear
5:15 PM 46.4 °F 43.5 °F 19.4 °F 34% 30.13 in 10.0 mi NW 5.8 mph - N/A   Clear
5:35 PM 46.4 °F 43.5 °F 17.6 °F 32% 30.13 in 10.0 mi NW 5.8 mph - N/A   Clear
5:55 PM 44.6 °F 43.1 °F 17.6 °F 34% 30.13 in 10.0 mi NNW 3.5 mph - N/A   Clear
6:15 PM 44.6 °F 42.2 °F 17.6 °F 34% 30.14 in 10.0 mi NNW 4.6 mph - N/A   Clear
6:35 PM 44.6 °F 41.4 °F 17.6 °F 34% 30.14 in 10.0 mi NNW 5.8 mph - N/A   Clear
6:55 PM 42.8 °F 38.6 °F 17.6 °F 36% 30.14 in 10.0 mi NNW 6.9 mph - N/A   Clear
7:15 PM 42.8 °F 39.3 °F 17.6 °F 36% 30.14 in 10.0 mi NW 5.8 mph - N/A   Clear
7:35 PM 41.0 °F 39.0 °F 17.6 °F 39% 30.14 in 10.0 mi NNW 3.5 mph - N/A   Clear
7:55 PM 42.8 °F 41.1 °F 17.6 °F 36% 30.14 in 10.0 mi NNW 3.5 mph - N/A   Clear
8:15 PM 41.0 °F 38.0 °F 19.4 °F 42% 30.14 in 10.0 mi NNW 4.6 mph - N/A   Clear
8:35 PM 39.2 °F 35.0 °F 19.4 °F 45% 30.14 in 10.0 mi NNW 5.8 mph - N/A   Clear
8:55 PM 39.2 °F 35.9 °F 19.4 °F 45% 30.14 in 10.0 mi North 4.6 mph - N/A   Clear
9:15 PM 37.4 °F 32.8 °F 21.2 °F 52% 30.14 in 10.0 mi NNW 5.8 mph - N/A   Clear
9:35 PM 37.4 °F 32.1 °F 19.4 °F 48% 30.14 in 10.0 mi North 6.9 mph - N/A   Clear
9:55 PM 37.4 °F 32.8 °F 19.4 °F 48% 30.14 in 10.0 mi NNW 5.8 mph - N/A   Clear
10:15 PM 37.4 °F 32.1 °F 19.4 °F 48% 30.14 in 10.0 mi North 6.9 mph - N/A   Clear
10:35 PM 37.4 °F 32.8 °F 19.4 °F 48% 30.13 in 10.0 mi North 5.8 mph - N/A   Clear
10:55 PM 35.6 °F 32.8 °F 21.2 °F 56% 30.13 in 10.0 mi North 3.5 mph - N/A   Clear
11:15 PM 35.6 °F 32.8 °F 21.2 °F 56% 30.13 in 10.0 mi NNW 3.5 mph - N/A   Clear
11:35 PM 35.6 °F 32.8 °F 21.2 °F 56% 30.13 in 10.0 mi NNW 3.5 mph - N/A   Clear
11:55 PM 35.6 °F - 21.2 °F 56% 30.13 in 10.0 mi Calm Calm - N/A   Clear